Regional Weather Roundup
Issued by NWS Binghamton, NY

Home | Current Version | Previous Version | Text Only | Print | Product List | Glossary On
Versions: 1 2 3 4 5 6 7 8 9 10 11 12 13 14 15 16 17 18 19 20 21 22 23 24 25 26 27 28
000
ASUS41 KBGM 240710
RWRBGM
RWRBGM
BINGHAMTON REGIONAL WEATHER ROUNDUP
NATIONAL WEATHER SERVICE BINGHAMTON NY
300 AM EDT FRI OCT 24 2014

Note: "fair" indicates few or no clouds below 12,000 feet with no
significant weather and/or obstructions to visibility.

* = Station(s) that does not report precipitation, such as rain,
snow, etc, also no thunder or fog.

!NYZ009-015>018-022>025-036-037-044>046-055>057-062-240800
...CENTRAL NEW YORK...

CITY           SKY/WX    TMP DP  RH WIND       PRES   REMARKS
BINGHAMTON     CLOUDY    46  42  86 N15       29.88R
CORTLAND       CLOUDY    45  45 100 NW7       29.94R
DANSVILLE      CLOUDY    51  42  71 NW5       30.00R
ELMIRA         CLOUDY    51  48  89 NE10      29.94R
ITHACA         CLOUDY    46  44  93 N9        29.95R
HAMILTON       CLOUDY    46  43  87 N10       29.88S
MONTICELLO     CLOUDY    45  39  81 NW9G17    29.82F
NORWICH        CLOUDY    45  41  87 N12G18    29.88S
ONEONTA        CLOUDY    41  41 100 N5        29.85R FOG
PENN YAN       CLOUDY    49  46  90 N6        29.97S
ROME           CLOUDY    47  41  80 NW7       29.91S
SIDNEY         CLOUDY    46  46 100 CALM      29.87S
SYRACUSE       CLOUDY    48  43  82 NW8       29.94S
$$

!PAZ038>040-043-044-047-048-072-240800
...NORTHEAST PENNSYLVANIA...

CITY           SKY/WX    TMP DP  RH WIND       PRES   REMARKS
HAZLETON       CLOUDY    48  45  87 NW10G22   29.89S
SCRANTON       CLOUDY    51  43  74 N8        29.86S
TOWANDA*       CLOUDY    50  48  93 N7        29.93R
$$
&&
KEY
WCI = WIND CHILL INDEX
VSB = VISIBILITY
HX  = HEAT INDEX
$$



USA.gov is the U.S. government's official web portal to all federal, state and local government web resources and services.